Stations météo

Publicité
Istres, France (7647): Température de l'air & dewpoint: 11.02.2019 16:00:00 - 17.02.2019 16:00:00 (CET)Istres, France (7647): Température de l'air 5cm: 11.02.2019 16:00:00 - 17.02.2019 16:00:00 (CET)Istres, France (7647): Vitesse du vent & gusts: 11.02.2019 16:00:00 - 17.02.2019 16:00:00 (CET)Istres, France (7647): Direction du vent: 11.02.2019 16:00:00 - 17.02.2019 16:00:00 (CET)Istres, France (7647): reduced air pressure: 11.02.2019 16:00:00 - 17.02.2019 16:00:00 (CET)Istres, France (7647): visibility: 11.02.2019 16:00:00 - 17.02.2019 16:00:00 (CET)Istres, France (7647): Quantités de précipitations: 11.02.2019 16:00:00 - 17.02.2019 16:00:00 (CET)
Date & Time tt [°C] td [°C] tt 5cm [°C] ff [km/h] ff [knt] fx [km/h] fx [knt] dd ppp [hPa] vv [km] rr [mm]
17.02.2019 16:00:00 14,1 8,5 18,6 22 12 29 16 S 1027,0 48 0,0
17.02.2019 15:00:00 14,7 8,2 19,9 19 11 30 16 SSE 1027,4 46 0,0
17.02.2019 14:00:00 14,8 8,5 17,1 23 12 32 17 S 1027,8 44 0,0
17.02.2019 13:00:00 14,1 8,7 16,6 18 10 27 15 SSE 1028,4 20 0,0
17.02.2019 12:00:00 14,0 7,7 15,4 11 6 20 11 E 1029,1 19 0,0
17.02.2019 11:00:00 12,7 8,0 11,9 11 6 17 9 E 1029,3 11 0,0
17.02.2019 10:00:00 9,5 4,3 8,6 10 5 17 9 NNE 1029,5 19 0,0
17.02.2019 09:00:00 6,1 3,6 2,7 10 6 16 9 NE 1029,5 22 0,0
17.02.2019 08:00:00 3,1 1,0 1,5 11 6 17 9 NNE 1029,1 22 0,0
17.02.2019 07:00:00 2,9 0,9 1,7 10 6 18 10 NE 1028,7 18 0,0
17.02.2019 06:00:00 2,5 1,3 1,5 11 6 16 9 NNE 1028,8 16 0,0
17.02.2019 05:00:00 3,2 2,2 2,2 9 5 16 9 NE 1028,6 8 0,0
17.02.2019 04:00:00 5,2 4,2 2,7 11 6 16 9 ENE 1028,7 7 0,0
17.02.2019 03:00:00 3,8 3,5 1,9 9 5 13 7 ENE 1029,1 7 0,0
17.02.2019 02:00:00 3,5 2,6 2,6 9 5 11 6 NE 1029,2 9 0,0
17.02.2019 01:00:00 4,1 3,7 2,4 7 4 9 5 ENE 1029,4 7 0,0
17.02.2019 00:00:00 4,4 3,8 3,2 7 4 10 6 ENE 1029,4 6 0,0
16.02.2019 23:00:00 5,0 4,4 3,6 9 5 10 6 NE 1029,5 5 0,0
16.02.2019 22:00:00 5,8 4,6 4,3 6 4 10 5 ENE 1029,6 4,5 0,0
16.02.2019 21:00:00 6,9 5,4 4,4 6 4 10 6 NE 1029,4 8 0,0
16.02.2019 20:00:00 8,6 6,6 4,9 7 4 14 8 E 1029,4 8 0,0
16.02.2019 19:00:00 11,6 8,3 7,4 11 6 16 8 ESE 1029,3 20 0,0
16.02.2019 18:00:00 12,7 7,2 10,8 8 4 19 10 SSE 1029,1 30 0,0
16.02.2019 17:00:00 15,0 6,5 17,6 14 8 19 10 S 1029,4 36 0,0
16.02.2019 16:00:00 16,3 4,6 20,9 16 8 23 12 S 1029,6 31 0,0
16.02.2019 15:00:00 17,1 3,0 22,1 16 9 26 14 S 1029,9 20 0,0
16.02.2019 14:00:00 18,4 4,2 23,6 5 3 13 7 SSE 1030,3 44 0,0
16.02.2019 13:00:00 17,4 4,7 22,3 5 3 11 6 SSE 1030,9 40 0,0
16.02.2019 12:00:00 15,7 5,6 18,2 2 1 8 4 N 1031,4 18 0,0
16.02.2019 11:00:00 13,2 3,3 15,6 7 4 10 6 ENE 1031,3 20 0,0
16.02.2019 10:00:00 10,1 4,7 8,1 3 2 9 5 N 1031,3 18 0,0
16.02.2019 09:00:00 5,6 2,2 1,1 8 4 16 9 NE 1031,2 22 0,0
16.02.2019 08:00:00 2,0 -0,4 -1,2 14 7 16 9 NNE 1030,8 17 0,0
16.02.2019 07:00:00 1,2 -0,9 -1,2 6 3 12 6 NNE 1030,6 13 0,0
16.02.2019 06:00:00 1,0 -0,6 -2,0 6 3 8 4 NNE 1030,5 13 0,0
16.02.2019 05:00:00 0,9 -0,9 -1,9 7 4 9 5 NE 1030,4 8 0,0
16.02.2019 04:00:00 1,2 -0,4 -1,3 5 3 11 6 NNE 1030,0 6 0,0
16.02.2019 03:00:00 1,9 0,9 0,4 5 3 13 7 NNE 1030,3 4,3 0,0
16.02.2019 02:00:00 2,3 1,3 0,8 6 3 12 7 NE 1030,4 3,2 0,0
16.02.2019 01:00:00 4,8 4,1 1,9 10 6 14 7 E 1030,3 2,7 0,0
16.02.2019 00:00:00 4,4 3,8 0,2 5 3 9 5 E 1029,8 1,4 0,0
15.02.2019 23:00:00 6,1 5,4 0,7 4 2 8 5 N 1029,7 1,5 0,0
15.02.2019 22:00:00 6,4 5,0 2,8 6 3 11 6 NNW 1029,7 3,0 0,0
15.02.2019 21:00:00 7,2 5,7 1,9 11 6 13 7 NW 1029,3 3,7 0,0
15.02.2019 20:00:00 7,1 5,4 1,9 6 3 14 8 WNW 1029,5 6 0,0
15.02.2019 19:00:00 8,5 5,1 4,1 11 6 14 8 WSW 1029,3 10 0,0
15.02.2019 18:00:00 13,5 0,5 10,4 11 6 13 7 W 1028,9 24 0,0
15.02.2019 17:00:00 17,1 -1,6 18,6 10 5 14 8 W 1029,0 35 0,0
15.02.2019 16:00:00 17,4 0,1 21,9 6 3 15 8 W 1029,3 39 0,0
15.02.2019 15:00:00 17,0 1,0 22,7 8 4 14 8 W 1029,8 44 0,0
15.02.2019 14:00:00 15,7 3,1 21,4 5 3 13 7 W 1030,5 13 0,0
15.02.2019 13:00:00 15,0 1,5 19,4 3 2 9 5 NNW 1031,2 20 0,0
15.02.2019 12:00:00 12,4 1,4 16,5 6 3 11 6 N 1031,9 30 0,0
15.02.2019 11:00:00 9,8 3,7 12,9 5 3 10 6 N 1032,4 17 0,0
15.02.2019 10:00:00 6,9 2,8 7,1 5 3 9 5 N 1032,3 17 0,0
15.02.2019 09:00:00 4,2 2,2 0,6 4 2 17 9 WNW 1032,5 9 0,0
15.02.2019 08:00:00 1,3 0,1 -0,3 13 7 19 11 NNE 1032,2 9 0,0
15.02.2019 07:00:00 1,1 0,5 -0,2 13 7 19 10 NNE 1031,9 7 0,0
15.02.2019 06:00:00 1,4 1,0 0,2 11 6 20 11 NNE 1031,8 7 0,0
15.02.2019 05:00:00 1,8 1,7 -0,3 9 5 15 8 NNE 1031,4 2,9 0,0
15.02.2019 04:00:00 1,8 1,5 0,5 8 4 16 9 NNE 1031,9 0,3 0,0
15.02.2019 03:00:00 2,3 2,3 0,1 11 6 16 8 NNE 1032,2 2,2 0,0
15.02.2019 02:00:00 1,9 1,6 0,6 7 4 10 6 NNE 1032,5 1,0 0,0
15.02.2019 01:00:00 2,3 1,9 0,9 6 3 8 5 ENE 1032,7 2,2 0,0
15.02.2019 00:00:00 4,0 3,6 0,2 8 4 9 5 ENE 1032,6 0,3 0,0
14.02.2019 23:00:00 4,9 3,9 0,5 8 4 9 5 E 1032,7 3,0 0,0
14.02.2019 22:00:00 5,8 5,1 0,9 6 4 10 5 ENE 1032,7 3,2 0,0
14.02.2019 21:00:00 6,1 4,7 0,7 4 2 7 4 N 1032,7 5 0,0
14.02.2019 20:00:00 7,6 5,6 1,0 6 3 10 5 SW 1032,6 10 0,0
14.02.2019 19:00:00 8,7 5,8 2,8 5 3 13 7 SW 1032,6 37 0,0
14.02.2019 18:00:00 11,6 6,3 9,9 11 6 21 11 SW 1032,5 49 0,0
14.02.2019 17:00:00 15,3 6,8 16,6 14 8 21 11 SW 1032,4 39 0,0
14.02.2019 16:00:00 17,2 2,4 21,0 4 2 12 6 SW 1032,7 40 0,0
14.02.2019 15:00:00 16,2 -1,0 20,7 4 2 14 8 E 1033,3 41 0,0
14.02.2019 14:00:00 16,1 1,4 19,8 4 2 14 8 N 1034,1 11 0,0
14.02.2019 13:00:00 15,0 1,1 18,9 4 2 15 8 N 1035,0 20 0,0
14.02.2019 12:00:00 13,5 2,1 16,4 7 4 11 6 NNE 1035,9 20 0,0
14.02.2019 11:00:00 11,6 2,6 13,1 8 4 11 6 NNE 1036,2 18 0,0
14.02.2019 10:00:00 8,7 2,9 7,7 6 3 13 7 NNE 1036,5 22 0,0
14.02.2019 09:00:00 5,0 2,2 2,2 10 5 - - NNE 1036,8 17 0,0
14.02.2019 08:00:00 2,4 0,6 0,5 11 6 - - NNE 1036,6 19 0,0
14.02.2019 07:00:00 - - - - - - - - - - -
14.02.2019 06:00:00 - - - - - - - - - - -
14.02.2019 05:00:00 - - - - - - - - - - -
14.02.2019 04:00:00 - - - - - - - - - - -
14.02.2019 03:00:00 - - - - - - - - - - -
14.02.2019 02:00:00 - - - - - - - - - - -
14.02.2019 01:00:00 - - - - - - - - - - -
14.02.2019 00:00:00 - - - - - - - - - - -
13.02.2019 23:00:00 - - - - - - - - - - -
13.02.2019 22:00:00 - - - - - - - - - - -
13.02.2019 21:00:00 - - - - - - - - - - -
13.02.2019 20:00:00 - - - - - - - - - - -
13.02.2019 19:00:00 - - - - - - - - - - -
13.02.2019 18:00:00 11,9 8,0 10,5 7 4 22 12 S 1033,2 19 0,0
13.02.2019 17:00:00 13,9 8,7 15,7 19 11 24 13 S 1032,9 20 0,0
13.02.2019 16:00:00 15,1 6,6 19,0 18 10 24 13 S 1032,9 27 0,0
13.02.2019 15:00:00 16,5 3,9 21,8 14 8 21 11 S 1032,7 40 0,0
13.02.2019 14:00:00 16,6 2,2 20,1 9 5 18 10 S 1032,7 50 0,0
13.02.2019 13:00:00 15,7 2,1 19,2 8 4 14 8 E 1033,1 43 0,0
13.02.2019 12:00:00 14,1 3,2 15,2 4 2 - - WNW 1033,3 38 0,0
13.02.2019 11:00:00 10,4 0,1 10,2 11 6 23 12 NNE 1033,3 18 0,0
13.02.2019 10:00:00 7,1 -0,4 6,7 16 8 26 14 NNE 1033,0 20 0,0
13.02.2019 09:00:00 4,6 0,5 1,8 16 9 26 14 NNE 1032,7 19 0,0
13.02.2019 08:00:00 2,1 0,9 0,9 15 8 23 13 N 1032,1 17 0,0
13.02.2019 07:00:00 1,7 1,1 0,8 17 9 24 13 NNE 1031,2 18 0,0
13.02.2019 06:00:00 2,0 0,8 0,9 16 9 28 15 N 1030,8 19 0,0
13.02.2019 05:00:00 2,7 1,1 1,1 16 9 24 13 N 1030,1 20 0,0
13.02.2019 04:00:00 3,1 1,6 -0,4 17 9 24 13 N 1029,6 20 0,0
13.02.2019 03:00:00 2,5 0,2 0,2 9 5 32 18 N 1029,3 24 0,0
13.02.2019 02:00:00 5,1 -0,3 4,1 21 11 30 16 N 1029,0 32 0,0
13.02.2019 01:00:00 6,4 -0,4 5,1 19 10 42 23 N 1028,9 36 0,0
13.02.2019 00:00:00 6,9 0,1 6,0 30 16 49 26 NNW 1028,2 38 0,0
12.02.2019 23:00:00 7,4 -0,6 6,1 36 19 63 34 NNW 1028,1 47 0,0
12.02.2019 22:00:00 7,6 -0,9 5,8 11 6 63 34 NNE 1028,7 58 0,0
12.02.2019 21:00:00 8,2 -1,4 7,2 39 21 68 37 NNW 1027,9 50 0,0
12.02.2019 20:00:00 8,2 -2,2 7,3 40 22 66 35 NW 1027,5 60 0,0
12.02.2019 19:00:00 8,9 -3,0 8,0 51 28 72 39 NNW 1026,7 60 0,0
12.02.2019 18:00:00 10,1 -3,6 9,5 57 31 78 42 NNW 1026,8 45 0,0
12.02.2019 17:00:00 11,8 -2,8 13,0 26 14 60 33 N 1027,2 34 0,0
12.02.2019 16:00:00 12,3 -2,4 15,3 26 14 51 28 NNW 1027,4 32 0,0
12.02.2019 15:00:00 12,3 -1,3 15,3 35 19 58 31 NNW 1027,7 36 0,0
12.02.2019 14:00:00 12,4 -1,2 15,9 37 20 51 28 NNW 1028,0 20 0,0
12.02.2019 13:00:00 11,7 -0,8 14,3 28 15 47 26 NNW 1028,6 20 0,0
12.02.2019 12:00:00 10,4 -0,7 13,2 31 17 47 25 N 1029,6 37 0,0
12.02.2019 11:00:00 9,4 0,3 10,9 32 17 45 25 N 1029,7 46 0,0
12.02.2019 10:00:00 7,9 0,4 8,7 31 17 58 31 NNW 1030,0 56 0,0
12.02.2019 09:00:00 6,8 0,7 5,6 31 17 48 26 NNW 1029,8 60 0,0
12.02.2019 08:00:00 6,1 0,4 5,3 39 21 59 32 N 1028,8 20 0,0
12.02.2019 07:00:00 6,6 0,3 5,7 37 20 61 33 NNW 1028,2 60 0,0
12.02.2019 06:00:00 6,8 0,7 6,1 39 21 72 39 N 1028,0 56 0,0
12.02.2019 05:00:00 7,1 1,0 6,3 44 24 70 38 N 1027,7 60 0,0
12.02.2019 04:00:00 7,3 1,1 6,4 43 23 69 38 NNW 1027,7 59 0,0
12.02.2019 03:00:00 7,5 1,8 6,3 39 21 67 36 NNW 1028,2 60 0,0
12.02.2019 02:00:00 7,1 2,4 6,1 46 25 74 40 NW 1027,9 55 0,0
12.02.2019 01:00:00 7,4 2,1 6,6 38 20 61 33 NNW 1028,1 59 0,0
12.02.2019 00:00:00 7,7 2,0 6,6 32 17 65 35 NNW 1028,0 55 0,0
11.02.2019 23:00:00 7,8 1,8 6,2 49 27 63 34 NNW 1027,6 20 0,0
11.02.2019 22:00:00 7,7 1,3 6,7 31 17 55 30 NNW 1028,1 60 0,0
11.02.2019 21:00:00 8,5 1,2 7,5 33 18 45 25 NNW 1027,7 60 0,0
11.02.2019 20:00:00 8,6 0,8 7,5 27 14 51 27 NNW 1026,9 60 0,0
11.02.2019 19:00:00 9,1 0,3 8,3 35 19 49 27 NNW 1026,2 60 0,0
11.02.2019 18:00:00 10,3 -0,5 9,3 29 16 45 25 NNW 1025,3 58 0,0
11.02.2019 17:00:00 11,5 -1,3 12,7 32 17 51 28 NNW 1024,5 31 0,0
11.02.2019 16:00:00 11,5 -2,0 11,4 38 21 58 31 NNW 1024,3 35 0,0

tt = Température de l'air
td = dewpoint
tt 5cm = Température de l'air 5cm
ff = Vitesse du vent
fx = gusts
dd = Direction du vent
ppp = reduced air pressure
vv = visibility
rr = Quantités de précipitations

stations d'obs. à proximité